Time,TemperatureF,DewpointF,PressureIn,WindDirection,WindDirectionDegrees,WindSpeedMPH,WindSpeedGustMPH,Humidity,HourlyPrecipIn,Conditions,Clouds,dailyrainin,SolarRadiationWatts/m^2,SoftwareType,DateUTC
2013-06-29 00:02:00,57.0,51.0,-100.00,WNW,302,5.0,7.0,79,0.00,,,0.00,0.000000,,2013-06-29 07:02:00,
2013-06-29 00:12:00,57.0,51.0,-100.00,WNW,302,5.0,7.0,79,0.00,,,0.00,0.000000,,2013-06-29 07:12:00,
2013-06-29 00:43:00,60.0,54.0,-100.00,NW,306,5.0,7.0,80,0.00,,,0.00,0.000000,,2013-06-29 07:43:00,
2013-06-29 00:53:00,60.0,54.0,-100.00,NW,306,5.0,7.0,80,0.00,,,0.00,0.000000,,2013-06-29 07:53:00,
2013-06-29 01:01:00,60.0,54.0,-100.00,NW,306,5.0,7.0,80,0.00,,,0.00,0.000000,,2013-06-29 08:01:00,
2013-06-29 01:11:00,60.0,54.0,-100.00,NW,306,5.0,7.0,80,0.00,,,0.00,0.000000,,2013-06-29 08:11:00,
2013-06-29 01:43:00,60.0,54.0,-100.00,NW,313,4.0,10.0,81,0.00,,,0.00,0.000000,,2013-06-29 08:43:00,
2013-06-29 01:52:00,60.0,54.0,-100.00,NW,313,4.0,10.0,81,0.00,,,0.00,0.000000,,2013-06-29 08:52:00,
2013-06-29 02:02:00,60.0,54.0,-100.00,NW,313,4.0,10.0,81,0.00,,,0.00,0.000000,,2013-06-29 09:02:00,
2013-06-29 02:12:00,60.0,54.0,-100.00,NW,313,4.0,10.0,81,0.00,,,0.00,0.000000,,2013-06-29 09:12:00,
2013-06-29 02:42:00,62.0,52.0,-100.00,NW,316,5.0,9.0,70,0.00,,,0.00,0.000000,,2013-06-29 09:42:00,
2013-06-29 02:53:00,62.0,52.0,-100.00,NW,316,5.0,9.0,70,0.00,,,0.00,0.000000,,2013-06-29 09:53:00,
2013-06-29 03:01:00,62.0,52.0,-100.00,NW,316,5.0,9.0,70,0.00,,,0.00,0.000000,,2013-06-29 10:01:00,
2013-06-29 03:11:00,62.0,52.0,-100.00,NW,316,5.0,9.0,70,0.00,,,0.00,0.000000,,2013-06-29 10:11:00,
2013-06-29 03:43:00,59.0,53.0,-100.00,NNW,336,4.0,8.0,81,0.00,,,0.00,0.000000,,2013-06-29 10:43:00,
2013-06-29 03:53:00,59.0,53.0,-100.00,NNW,336,4.0,8.0,81,0.00,,,0.00,0.000000,,2013-06-29 10:53:00,
2013-06-29 04:01:00,59.0,53.0,-100.00,NNW,336,4.0,8.0,81,0.00,,,0.00,0.000000,,2013-06-29 11:01:00,
2013-06-29 04:11:00,59.0,53.0,-100.00,NNW,336,4.0,8.0,81,0.00,,,0.00,0.000000,,2013-06-29 11:11:00,
2013-06-29 04:43:00,58.0,53.0,-100.00,NW,312,3.0,9.0,84,0.00,,,0.00,0.000000,,2013-06-29 11:43:00,
2013-06-29 04:53:00,58.0,53.0,-100.00,NW,312,3.0,9.0,84,0.00,,,0.00,0.000000,,2013-06-29 11:53:00,
2013-06-29 05:02:00,58.0,53.0,-100.00,NW,312,3.0,9.0,84,0.00,,,0.00,0.000000,,2013-06-29 12:02:00,
2013-06-29 05:11:00,58.0,53.0,-100.00,NW,312,3.0,9.0,84,0.00,,,0.00,0.000000,,2013-06-29 12:11:00,
2013-06-29 05:43:00,61.0,52.0,-100.00,WNW,300,3.0,8.0,71,0.00,,,0.00,0.000000,,2013-06-29 12:43:00,
2013-06-29 05:53:00,61.0,52.0,-100.00,WNW,300,3.0,8.0,71,0.00,,,0.00,0.000000,,2013-06-29 12:53:00,
2013-06-29 06:02:00,61.0,52.0,-100.00,WNW,300,3.0,8.0,71,0.00,,,0.00,0.000000,,2013-06-29 13:02:00,
2013-06-29 06:11:00,61.0,52.0,-100.00,WNW,300,3.0,8.0,71,0.00,,,0.00,0.000000,,2013-06-29 13:11:00,
2013-06-29 06:43:00,63.0,50.0,-100.00,NW,309,2.0,5.0,63,0.00,,,0.00,7.000000,,2013-06-29 13:43:00,
2013-06-29 06:53:00,63.0,50.0,-100.00,NW,309,2.0,5.0,63,0.00,,,0.00,7.000000,,2013-06-29 13:53:00,
2013-06-29 07:02:00,63.0,50.0,-100.00,NW,309,2.0,5.0,63,0.00,,,0.00,7.000000,,2013-06-29 14:02:00,
2013-06-29 07:12:00,63.0,50.0,-100.00,NW,309,2.0,5.0,63,0.00,,,0.00,7.000000,,2013-06-29 14:12:00,
2013-06-29 07:44:00,69.0,53.0,-100.00,NNW,334,3.0,6.0,56,0.00,,,0.00,34.000000,,2013-06-29 14:44:00,
2013-06-29 07:53:00,69.0,53.0,-100.00,NNW,334,3.0,6.0,56,0.00,,,0.00,34.000000,,2013-06-29 14:53:00,
2013-06-29 08:01:00,69.0,53.0,-100.00,NNW,334,3.0,6.0,56,0.00,,,0.00,34.000000,,2013-06-29 15:01:00,
2013-06-29 08:11:00,69.0,53.0,-100.00,NNW,334,3.0,6.0,56,0.00,,,0.00,34.000000,,2013-06-29 15:11:00,
2013-06-29 08:33:00,75.0,52.0,-100.00,North,357,2.0,5.0,45,0.00,,,0.00,0.000000,,2013-06-29 15:33:00,
2013-06-29 09:01:00,75.0,52.0,-100.00,North,357,2.0,5.0,45,0.00,,,0.00,0.000000,,2013-06-29 16:01:00,
2013-06-29 09:12:00,75.0,52.0,-100.00,North,357,2.0,5.0,45,0.00,,,0.00,0.000000,,2013-06-29 16:12:00,
2013-06-29 09:34:00,80.0,57.0,-100.00,NNE,24,3.0,6.0,46,0.00,,,-99.99,0.000000,,2013-06-29 16:34:00,
2013-06-29 10:01:00,80.0,57.0,-100.00,NNE,24,3.0,6.0,46,0.00,,,-99.99,0.000000,,2013-06-29 17:01:00,
2013-06-29 10:11:00,80.0,57.0,-100.00,NNE,24,3.0,6.0,46,0.00,,,-99.99,0.000000,,2013-06-29 17:11:00,
2013-06-29 10:34:00,78.0,60.0,-100.00,NNE,26,5.0,7.0,54,0.00,,,0.00,0.000000,,2013-06-29 17:34:00,
2013-06-29 10:42:00,78.0,60.0,-100.00,NNE,26,5.0,7.0,54,0.00,,,0.00,0.000000,,2013-06-29 17:42:00,
2013-06-29 10:53:00,78.0,60.0,-100.00,NNE,26,5.0,7.0,54,0.00,,,0.00,0.000000,,2013-06-29 17:53:00,
2013-06-29 11:01:00,78.0,60.0,-100.00,NNE,26,5.0,7.0,54,0.00,,,0.00,0.000000,,2013-06-29 18:01:00,
2013-06-29 11:11:00,78.0,60.0,-100.00,NNE,26,5.0,7.0,54,0.00,,,0.00,0.000000,,2013-06-29 18:11:00,
2013-06-29 11:43:00,80.0,60.0,-100.00,NNE,27,5.0,10.0,51,0.00,,,0.00,0.000000,,2013-06-29 18:43:00,
2013-06-29 11:53:00,80.0,60.0,-100.00,NNE,27,5.0,10.0,51,0.00,,,0.00,0.000000,,2013-06-29 18:53:00,
2013-06-29 12:01:00,80.0,60.0,-100.00,NNE,27,5.0,10.0,51,0.00,,,0.00,0.000000,,2013-06-29 19:01:00,
2013-06-29 12:12:00,80.0,60.0,-100.00,NNE,27,5.0,10.0,51,0.00,,,0.00,0.000000,,2013-06-29 19:12:00,
2013-06-29 12:43:00,82.0,61.0,-100.00,NNE,25,6.0,11.0,49,0.00,,,0.00,0.000000,,2013-06-29 19:43:00,
2013-06-29 12:54:00,82.0,61.0,-100.00,NNE,25,6.0,11.0,49,0.00,,,0.00,0.000000,,2013-06-29 19:54:00,
2013-06-29 13:01:00,82.0,61.0,-100.00,NNE,25,6.0,11.0,49,0.00,,,0.00,0.000000,,2013-06-29 20:01:00,
2013-06-29 13:11:00,82.0,61.0,-100.00,NNE,25,6.0,11.0,49,0.00,,,0.00,0.000000,,2013-06-29 20:11:00,
2013-06-29 13:33:00,84.0,59.0,-100.00,North,358,6.0,11.0,43,0.00,,,-99.99,0.000000,,2013-06-29 20:33:00,
2013-06-29 13:43:00,84.0,59.0,-100.00,North,358,6.0,11.0,43,0.00,,,-99.99,0.000000,,2013-06-29 20:43:00,
2013-06-29 13:52:00,84.0,59.0,-100.00,North,358,6.0,11.0,43,0.00,,,-99.99,0.000000,,2013-06-29 20:52:00,
2013-06-29 14:01:00,84.0,59.0,-100.00,North,358,6.0,11.0,43,0.00,,,-99.99,0.000000,,2013-06-29 21:01:00,
2013-06-29 14:11:00,84.0,59.0,-100.00,North,358,6.0,11.0,43,0.00,,,-99.99,0.000000,,2013-06-29 21:11:00,
2013-06-29 14:42:00,80.0,60.0,-100.00,North,352,7.0,15.0,50,0.00,,,0.00,0.000000,,2013-06-29 21:42:00,
2013-06-29 14:52:00,80.0,60.0,-100.00,North,352,7.0,15.0,50,0.00,,,0.00,0.000000,,2013-06-29 21:52:00,
2013-06-29 15:01:00,80.0,60.0,-100.00,North,352,7.0,15.0,50,0.00,,,0.00,0.000000,,2013-06-29 22:01:00,
2013-06-29 15:11:00,80.0,60.0,-100.00,North,352,7.0,15.0,50,0.00,,,0.00,0.000000,,2013-06-29 22:11:00,
2013-06-29 15:43:00,78.0,61.0,-100.00,North,7,6.0,15.0,56,0.00,,,0.00,0.000000,,2013-06-29 22:43:00,
2013-06-29 15:53:00,78.0,61.0,-100.00,North,7,6.0,15.0,56,0.00,,,0.00,0.000000,,2013-06-29 22:53:00,
2013-06-29 16:02:00,78.0,61.0,-100.00,North,7,6.0,15.0,56,0.00,,,0.00,0.000000,,2013-06-29 23:02:00,
2013-06-29 16:12:00,78.0,61.0,-100.00,North,7,6.0,15.0,56,0.00,,,0.00,0.000000,,2013-06-29 23:12:00,
2013-06-29 16:34:00,78.0,60.0,-100.00,North,11,6.0,14.0,54,0.00,,,0.00,0.000000,,2013-06-29 23:34:00,
2013-06-29 16:43:00,78.0,60.0,-100.00,North,11,6.0,14.0,54,0.00,,,0.00,0.000000,,2013-06-29 23:43:00,
2013-06-29 16:52:00,78.0,60.0,-100.00,North,11,6.0,14.0,54,0.00,,,0.00,0.000000,,2013-06-29 23:52:00,
2013-06-29 17:01:00,78.0,60.0,-100.00,North,11,6.0,14.0,54,0.00,,,0.00,0.000000,,2013-06-30 00:01:00,
2013-06-29 17:11:00,78.0,60.0,-100.00,North,11,6.0,14.0,54,0.00,,,0.00,0.000000,,2013-06-30 00:11:00,
2013-06-29 18:33:00,76.0,59.0,-100.00,North,0,4.0,12.0,56,-99.99,,,0.00,0.000000,,2013-06-30 01:33:00,
2013-06-29 18:44:00,76.0,59.0,-100.00,North,0,4.0,12.0,56,-99.99,,,0.00,0.000000,,2013-06-30 01:44:00,
2013-06-29 18:53:00,76.0,59.0,-100.00,North,0,4.0,12.0,56,-99.99,,,0.00,0.000000,,2013-06-30 01:53:00,
2013-06-29 19:02:00,76.0,59.0,-100.00,North,0,4.0,12.0,56,-99.99,,,0.00,0.000000,,2013-06-30 02:02:00,
2013-06-29 19:11:00,76.0,59.0,-100.00,North,0,4.0,12.0,56,-99.99,,,0.00,0.000000,,2013-06-30 02:11:00,
2013-06-29 19:34:00,71.0,58.0,-100.00,NNW,345,4.0,10.0,64,0.00,,,0.00,0.000000,,2013-06-30 02:34:00,
2013-06-29 19:43:00,71.0,58.0,-100.00,NNW,345,4.0,10.0,64,0.00,,,0.00,0.000000,,2013-06-30 02:43:00,
2013-06-29 19:53:00,71.0,58.0,-100.00,NNW,345,4.0,10.0,64,0.00,,,0.00,0.000000,,2013-06-30 02:53:00,
2013-06-29 20:01:00,71.0,58.0,-100.00,NNW,345,4.0,10.0,64,0.00,,,0.00,0.000000,,2013-06-30 03:01:00,
2013-06-29 20:11:00,71.0,58.0,-100.00,NNW,345,4.0,10.0,64,0.00,,,0.00,0.000000,,2013-06-30 03:11:00,
2013-06-29 20:43:00,69.0,57.0,-100.00,NNW,342,2.0,7.0,66,0.00,,,0.00,0.000000,,2013-06-30 03:43:00,
2013-06-29 20:53:00,69.0,57.0,-100.00,NNW,342,2.0,7.0,66,0.00,,,0.00,0.000000,,2013-06-30 03:53:00,
2013-06-29 21:01:00,69.0,57.0,-100.00,NNW,342,2.0,7.0,66,0.00,,,0.00,0.000000,,2013-06-30 04:01:00,
2013-06-29 21:12:00,69.0,57.0,-100.00,NNW,342,2.0,7.0,66,0.00,,,0.00,0.000000,,2013-06-30 04:12:00,
2013-06-29 21:33:00,68.0,58.0,-100.00,NNW,333,5.0,7.0,71,0.00,,,0.00,0.000000,,2013-06-30 04:33:00,
2013-06-29 21:43:00,68.0,58.0,-100.00,NNW,333,5.0,7.0,71,0.00,,,0.00,0.000000,,2013-06-30 04:43:00,
2013-06-29 21:53:00,68.0,58.0,-100.00,NNW,333,5.0,7.0,71,0.00,,,0.00,0.000000,,2013-06-30 04:53:00,
2013-06-29 22:02:00,68.0,58.0,-100.00,NNW,333,5.0,7.0,71,0.00,,,0.00,0.000000,,2013-06-30 05:02:00,
2013-06-29 22:11:00,68.0,58.0,-100.00,NNW,333,5.0,7.0,71,0.00,,,0.00,0.000000,,2013-06-30 05:11:00,
2013-06-29 22:34:00,66.0,57.0,-100.00,NW,319,3.0,7.0,74,0.00,,,0.00,0.000000,,2013-06-30 05:34:00,
2013-06-29 22:43:00,66.0,57.0,-100.00,NW,319,3.0,7.0,74,0.00,,,0.00,0.000000,,2013-06-30 05:43:00,
2013-06-29 22:53:00,66.0,57.0,-100.00,NW,319,3.0,7.0,74,0.00,,,0.00,0.000000,,2013-06-30 05:53:00,
2013-06-29 23:02:00,66.0,57.0,-100.00,NW,319,3.0,7.0,74,0.00,,,0.00,0.000000,,2013-06-30 06:02:00,
2013-06-29 23:12:00,66.0,57.0,-100.00,NW,319,3.0,7.0,74,0.00,,,0.00,0.000000,,2013-06-30 06:12:00,
2013-06-29 23:43:00,65.0,57.0,-100.00,NW,321,3.0,5.0,76,0.00,,,0.00,0.000000,,2013-06-30 06:43:00,
2013-06-29 23:53:00,65.0,57.0,-100.00,NW,321,3.0,5.0,76,0.00,,,0.00,0.000000,,2013-06-30 06:53:00,